QPF
0.01 0.01 0.02 0.02 0.02 0.03 0.03 0.04 0.03 0.02 0.02 0.02 0.02 0.02 0.02 0.01 0.01 0.01 0.02 0.02 0.02 0.02 0.03 0.05 0.04 0.05 0.05 0.06 0.05 0.05 0.06 0.05 0.09 0.10 0.07 0.06 0.06 0.07 0.09 0.08 0.05 0.05 0.05
0.00 0.01 0.02 0.02 0.01 0.02 0.02 0.02 0.03 0.02 0.01 0.01 0.01 0.01 0.01 0.01 0.01 0.01 0.02 0.02 0.02 0.03 0.04 0.04 0.04 0.04 0.04 0.05 0.06 0.07 0.08 0.09 0.10 0.10 0.07 0.08 0.08 0.08 0.09 0.05 0.04 0.05 0.06
0.00 0.00 0.01 0.02 0.01 0.01 0.02 0.02 0.02 0.01 0.01 0.01 0.01 0.01 0.01 0.01 0.01 0.02 0.03 0.03 0.03 0.04 0.03 0.03 0.03 0.03 0.03 0.05 0.04 0.06 0.09 0.09 0.09 0.10 0.08 0.09 0.06 0.06 0.07 0.06 0.04 0.04 0.07
0.00 0.00 0.01 0.01 0.01 0.01 0.01 0.01 0.01 0.01 0.01 0.01 0.01 0.01 0.01 0.01 0.01 0.02 0.03 0.04 0.04 0.03 0.03 0.02 0.02 0.03 0.04 0.05 0.05 0.06 0.08 0.07 0.05 0.06 0.07 0.07 0.06 0.06 0.08 0.07 0.07 0.10 0.12
0.01 0.00 0.01 0.02 0.01 0.01 0.01 0.01 0.01 0.01 0.01 0.01 0.01 0.00 0.01 0.01 0.02 0.03 0.05 0.04 0.04 0.02 0.03 0.03 0.02 0.03 0.04 0.05 0.05 0.04 0.05 0.04 0.03 0.03 0.05 0.09 0.09 0.08 0.06 0.06 0.08 0.13 0.10
0.01 0.01 0.01 0.02 0.03 0.02 0.02 0.02 0.01 0.01 0.01 0.01 0.01 0.01 0.01 0.02 0.03 0.05 0.06 0.05 0.03 0.02 0.04 0.04 0.04 0.06 0.06 0.05 0.04 0.04 0.03 0.02 0.02 0.02 0.04 0.08 0.07 0.07 0.06 0.06 0.08 0.09 0.08
0.02 0.02 0.02 0.01 0.02 0.02 0.02 0.02 0.01 0.01 0.01 0.01 0.01 0.01 0.01 0.02 0.03 0.05 0.06 0.04 0.03 0.02 0.04 0.05 0.05 0.06 0.07 0.07 0.05 0.04 0.04 0.03 0.02 0.02 0.04 0.07 0.06 0.07 0.05 0.04 0.04 0.06 0.07
0.02 0.02 0.03 0.04 0.04 0.04 0.03 0.02 0.02 0.02 0.02 0.01 0.01 0.01 0.01 0.02 0.03 0.05 0.04 0.04 0.02 0.01 0.03 0.04 0.05 0.06 0.06 0.07 0.06 0.04 0.03 0.01 0.01 0.01 0.02 0.05 0.05 0.06 0.04 0.02 0.03 0.04 0.04
0.02 0.03 0.04 0.06 0.06 0.05 0.04 0.03 0.02 0.03 0.03 0.03 0.03 0.03 0.02 0.02 0.03 0.04 0.04 0.04 0.02 0.02 0.03 0.05 0.05 0.07 0.06 0.05 0.05 0.03 0.02 0.01 0.00 0.01 0.01 0.03 0.03 0.04 0.03 0.02 0.03 0.04 0.03
0.02 0.02 0.04 0.06 0.07 0.06 0.06 0.05 0.05 0.03 0.03 0.03 0.03 0.03 0.03 0.03 0.04 0.03 0.04 0.03 0.02 0.02 0.04 0.07 0.07 0.05 0.04 0.06 0.05 0.03 0.02 0.01 0.00 0.00 0.01 0.02 0.03 0.04 0.04 0.03 0.04 0.03 0.03
0.02 0.02 0.02 0.03 0.03 0.03 0.04 0.06 0.08 0.05 0.04 0.03 0.04 0.03 0.04 0.07 0.04 0.03 0.03 0.03 0.02 0.02 0.04 0.07 0.06 0.04 0.04 0.06 0.06 0.04 0.03 0.02 0.00 0.00 0.01 0.01 0.03 0.04 0.04 0.03 0.04 0.03 0.03
0.02 0.02 0.03 0.02 0.02 0.02 0.03 0.07 0.09 0.07 0.06 0.05 0.05 0.04 0.05 0.06 0.05 0.03 0.03 0.04 0.03 0.03 0.04 0.05 0.04 0.03 0.03 0.03 0.04 0.03 0.03 0.02 0.00 0.01 0.01 0.02 0.04 0.03 0.03 0.03 0.03 0.04 0.04
0.01 0.02 0.03 0.02 0.02 0.02 0.04 0.06 0.07 0.07 0.08 0.06 0.05 0.05 0.05 0.04 0.04 0.03 0.04 0.05 0.05 0.04 0.03 0.02 0.01 0.01 0.02 0.04 0.05 0.03 0.03 0.01 0.00 0.01 0.01 0.01 0.03 0.03 0.03 0.04 0.04 0.04 0.05
0.01 0.01 0.02 0.03 0.04 0.05 0.06 0.05 0.06 0.06 0.06 0.06 0.06 0.05 0.05 0.04 0.04 0.04 0.05 0.04 0.04 0.05 0.05 0.03 0.02 0.02 0.03 0.03 0.03 0.03 0.02 0.01 0.01 0.02 0.02 0.01 0.02 0.03 0.03 0.04 0.04 0.03 0.05
0.01 0.02 0.03 0.04 0.06 0.06 0.06 0.05 0.05 0.06 0.05 0.04 0.05 0.05 0.05 0.05 0.04 0.04 0.05 0.04 0.03 0.03 0.03 0.04 0.03 0.04 0.05 0.03 0.02 0.02 0.02 0.01 0.01 0.02 0.02 0.02 0.02 0.03 0.03 0.02 0.03 0.03 0.03
0.02 0.03 0.04 0.05 0.08 0.07 0.05 0.05 0.06 0.08 0.06 0.04 0.05 0.05 0.05 0.05 0.05 0.05 0.04 0.05 0.04 0.04 0.04 0.05 0.04 0.04 0.04 0.04 0.03 0.02 0.02 0.02 0.01 0.01 0.02 0.03 0.02 0.02 0.03 0.02 0.02 0.03 0.03
0.05 0.05 0.06 0.06 0.09 0.08 0.07 0.04 0.05 0.06 0.05 0.05 0.05 0.05 0.05 0.06 0.06 0.05 0.05 0.05 0.05 0.05 0.06 0.08 0.06 0.03 0.03 0.04 0.03 0.02 0.02 0.03 0.02 0.02 0.01 0.03 0.03 0.02 0.02 0.03 0.03 0.03 0.03
0.05 0.05 0.07 0.07 0.08 0.08 0.08 0.05 0.05 0.04 0.04 0.05 0.06 0.06 0.04 0.04 0.04 0.04 0.04 0.05 0.06 0.06 0.06 0.08 0.05 0.04 0.04 0.05 0.06 0.04 0.04 0.04 0.03 0.03 0.01 0.02 0.03 0.03 0.04 0.03 0.03 0.03 0.03
0.05 0.06 0.09 0.09 0.09 0.09 0.07 0.05 0.06 0.05 0.05 0.07 0.07 0.07 0.05 0.04 0.04 0.05 0.05 0.06 0.06 0.07 0.08 0.06 0.06 0.06 0.05 0.06 0.06 0.05 0.04 0.05 0.05 0.03 0.01 0.01 0.02 0.03 0.05 0.04 0.02 0.02 0.03
0.06 0.09 0.11 0.10 0.13 0.13 0.08 0.06 0.06 0.05 0.06 0.08 0.08 0.09 0.07 0.07 0.07 0.08 0.06 0.06 0.07 0.08 0.09 0.08 0.09 0.08 0.05 0.06 0.04 0.06 0.05 0.03 0.04 0.04 0.02 0.01 0.02 0.02 0.03 0.05 0.06 0.03 0.02
0.09 0.14 0.16 0.15 0.17 0.16 0.09 0.06 0.06 0.06 0.06 0.07 0.06 0.05 0.06 0.07 0.08 0.11 0.10 0.10 0.10 0.09 0.09 0.07 0.07 0.08 0.05 0.05 0.08 0.09 0.06 0.03 0.03 0.04 0.03 0.04 0.03 0.02 0.02 0.05 0.08 0.06 0.05
0.12 0.16 0.20 0.23 0.21 0.18 0.11 0.07 0.08 0.07 0.06 0.08 0.07 0.05 0.06 0.07 0.07 0.08 0.11 0.09 0.09 0.10 0.10 0.09 0.09 0.08 0.05 0.04 0.07 0.08 0.07 0.06 0.04 0.02 0.03 0.04 0.03 0.03 0.03 0.02 0.05 0.07 0.07
0.21 0.24 0.23 0.23 0.20 0.18 0.13 0.09 0.10 0.10 0.09 0.08 0.08 0.07 0.07 0.08 0.08 0.08 0.08 0.08 0.08 0.07 0.09 0.10 0.10 0.10 0.10 0.07 0.06 0.07 0.07 0.07 0.06 0.03 0.01 0.01 0.02 0.03 0.03 0.03 0.03 0.05 0.05
0.20 0.21 0.16 0.15 0.14 0.13 0.11 0.10 0.08 0.08 0.08 0.09 0.09 0.09 0.10 0.10 0.09 0.09 0.08 0.09 0.07 0.05 0.08 0.07 0.07 0.09 0.10 0.08 0.07 0.06 0.05 0.06 0.08 0.06 0.03 0.01 0.01 0.02 0.02 0.02 0.02 0.03 0.04
0.14 0.11 0.08 0.08 0.11 0.08 0.09 0.10 0.09 0.08 0.09 0.10 0.10 0.11 0.11 0.10 0.10 0.08 0.06 0.07 0.07 0.06 0.07 0.07 0.06 0.07 0.07 0.07 0.07 0.06 0.06 0.06 0.06 0.06 0.07 0.05 0.02 0.01 0.01 0.01 0.02 0.03 0.03
0.08 0.07 0.07 0.07 0.07 0.07 0.07 0.07 0.09 0.08 0.10 0.12 0.13 0.09 0.09 0.10 0.10 0.08 0.06 0.08 0.07 0.06 0.07 0.07 0.07 0.07 0.09 0.09 0.09 0.06 0.06 0.05 0.05 0.05 0.06 0.06 0.05 0.02 0.01 0.01 0.02 0.02 0.02
MSLP
1013.51 1013.63 1013.89 1014.26 1014.67 1015.05 1015.34 1015.51 1015.57 1015.56 1015.54 1015.56 1015.67 1015.87 1016.14 1016.43 1016.69 1016.89 1016.99 1017.02 1017.00 1016.96 1016.93 1016.95 1017.01 1017.08 1017.16 1017.20 1017.21 1017.18 1017.16 1017.16 1017.22 1017.36 1017.58 1017.86 1018.16 1018.44 1018.68 1018.87 1019.01 1019.11 1019.23
1013.54 1013.78 1014.16 1014.62 1015.09 1015.49 1015.78 1015.91 1015.92 1015.84 1015.76 1015.73 1015.80 1015.98 1016.23 1016.52 1016.78 1016.98 1017.09 1017.12 1017.10 1017.06 1017.05 1017.08 1017.15 1017.25 1017.34 1017.40 1017.42 1017.42 1017.41 1017.43 1017.53 1017.70 1017.97 1018.28 1018.62 1018.93 1019.19 1019.39 1019.52 1019.63 1019.72
1013.49 1013.83 1014.30 1014.84 1015.38 1015.83 1016.14 1016.28 1016.27 1016.17 1016.06 1016.00 1016.03 1016.17 1016.39 1016.65 1016.88 1017.06 1017.15 1017.17 1017.15 1017.13 1017.15 1017.21 1017.32 1017.45 1017.57 1017.65 1017.69 1017.69 1017.68 1017.71 1017.81 1018.01 1018.28 1018.62 1018.98 1019.32 1019.59 1019.80 1019.95 1020.05 1020.16
1013.38 1013.79 1014.33 1014.94 1015.54 1016.05 1016.40 1016.58 1016.60 1016.53 1016.42 1016.35 1016.36 1016.46 1016.64 1016.84 1017.03 1017.17 1017.23 1017.24 1017.23 1017.23 1017.28 1017.39 1017.55 1017.72 1017.87 1017.97 1018.01 1018.01 1017.99 1018.00 1018.08 1018.26 1018.54 1018.88 1019.24 1019.59 1019.88 1020.10 1020.26 1020.39 1020.51
1013.25 1013.70 1014.28 1014.94 1015.59 1016.16 1016.58 1016.82 1016.90 1016.87 1016.79 1016.74 1016.74 1016.82 1016.96 1017.11 1017.25 1017.33 1017.37 1017.37 1017.37 1017.41 1017.50 1017.66 1017.87 1018.08 1018.26 1018.37 1018.40 1018.37 1018.32 1018.30 1018.34 1018.50 1018.75 1019.07 1019.43 1019.78 1020.08 1020.32 1020.50 1020.64 1020.79
1013.19 1013.63 1014.22 1014.90 1015.59 1016.20 1016.67 1016.98 1017.13 1017.17 1017.14 1017.12 1017.13 1017.20 1017.30 1017.42 1017.51 1017.56 1017.57 1017.57 1017.59 1017.66 1017.80 1018.01 1018.26 1018.51 1018.71 1018.81 1018.83 1018.77 1018.67 1018.61 1018.61 1018.73 1018.96 1019.26 1019.62 1019.96 1020.27 1020.52 1020.71 1020.87 1021.02
1013.24 1013.66 1014.22 1014.89 1015.57 1016.21 1016.72 1017.08 1017.29 1017.38 1017.41 1017.43 1017.47 1017.54 1017.63 1017.72 1017.79 1017.82 1017.82 1017.83 1017.87 1017.97 1018.15 1018.41 1018.69 1018.96 1019.16 1019.26 1019.25 1019.15 1019.03 1018.92 1018.89 1018.99 1019.19 1019.49 1019.84 1020.20 1020.51 1020.76 1020.95 1021.11 1021.26
1013.44 1013.81 1014.33 1014.95 1015.60 1016.21 1016.73 1017.11 1017.35 1017.49 1017.57 1017.62 1017.69 1017.78 1017.88 1017.97 1018.04 1018.07 1018.08 1018.10 1018.16 1018.30 1018.51 1018.79 1019.09 1019.36 1019.56 1019.64 1019.61 1019.50 1019.34 1019.22 1019.19 1019.27 1019.48 1019.80 1020.16 1020.52 1020.84 1021.09 1021.27 1021.41 1021.55
1013.79 1014.10 1014.55 1015.10 1015.69 1016.25 1016.73 1017.09 1017.34 1017.50 1017.60 1017.69 1017.79 1017.91 1018.03 1018.14 1018.23 1018.28 1018.31 1018.36 1018.44 1018.59 1018.82 1019.10 1019.40 1019.67 1019.85 1019.92 1019.88 1019.76 1019.60 1019.49 1019.47 1019.58 1019.82 1020.16 1020.55 1020.94 1021.27 1021.51 1021.68 1021.79 1021.88
1014.23 1014.49 1014.87 1015.35 1015.85 1016.34 1016.75 1017.06 1017.28 1017.43 1017.53 1017.65 1017.77 1017.93 1018.09 1018.24 1018.36 1018.44 1018.50 1018.57 1018.66 1018.82 1019.04 1019.32 1019.60 1019.85 1020.02 1020.08 1020.04 1019.92 1019.79 1019.70 1019.72 1019.88 1020.17 1020.56 1020.99 1021.41 1021.75 1022.00 1022.15 1022.22 1022.27
1014.69 1014.93 1015.26 1015.66 1016.08 1016.47 1016.80 1017.04 1017.21 1017.33 1017.43 1017.55 1017.70 1017.89 1018.09 1018.28 1018.44 1018.56 1018.65 1018.73 1018.84 1018.99 1019.19 1019.44 1019.70 1019.92 1020.07 1020.13 1020.10 1020.00 1019.91 1019.87 1019.94 1020.15 1020.49 1020.93 1021.41 1021.86 1022.22 1022.47 1022.61 1022.65 1022.65
1015.13 1015.36 1015.66 1016.00 1016.34 1016.65 1016.90 1017.07 1017.18 1017.26 1017.34 1017.46 1017.63 1017.84 1018.08 1018.32 1018.51 1018.67 1018.78 1018.87 1018.97 1019.10 1019.28 1019.50 1019.72 1019.92 1020.06 1020.12 1020.11 1020.04 1019.99 1020.00 1020.11 1020.37 1020.76 1021.23 1021.74 1022.22 1022.60 1022.87 1023.00 1023.03 1023.00
1015.48 1015.74 1016.03 1016.34 1016.63 1016.87 1017.05 1017.16 1017.22 1017.26 1017.32 1017.43 1017.61 1017.85 1018.11 1018.38 1018.61 1018.79 1018.92 1019.01 1019.10 1019.21 1019.36 1019.54 1019.73 1019.91 1020.05 1020.11 1020.12 1020.09 1020.07 1020.11 1020.26 1020.53 1020.94 1021.43 1021.95 1022.44 1022.84 1023.12 1023.26 1023.29 1023.26
1015.73 1016.02 1016.33 1016.63 1016.89 1017.10 1017.24 1017.30 1017.32 1017.33 1017.38 1017.49 1017.67 1017.92 1018.20 1018.49 1018.74 1018.94 1019.07 1019.17 1019.24 1019.33 1019.45 1019.60 1019.77 1019.94 1020.07 1020.15 1020.18 1020.18 1020.18 1020.24 1020.39 1020.66 1021.04 1021.51 1022.02 1022.50 1022.90 1023.20 1023.36 1023.42 1023.41
1015.85 1016.19 1016.53 1016.84 1017.11 1017.30 1017.42 1017.47 1017.47 1017.47 1017.50 1017.61 1017.79 1018.04 1018.34 1018.64 1018.90 1019.11 1019.25 1019.34 1019.40 1019.47 1019.57 1019.70 1019.85 1020.02 1020.16 1020.26 1020.31 1020.33 1020.35 1020.40 1020.53 1020.76 1021.09 1021.51 1021.97 1022.42 1022.81 1023.12 1023.31 1023.41 1023.45
1015.86 1016.24 1016.62 1016.95 1017.24 1017.44 1017.57 1017.62 1017.62 1017.62 1017.65 1017.75 1017.93 1018.18 1018.48 1018.78 1019.04 1019.26 1019.41 1019.50 1019.56 1019.62 1019.70 1019.83 1019.98 1020.15 1020.30 1020.43 1020.50 1020.54 1020.56 1020.60 1020.68 1020.85 1021.11 1021.45 1021.84 1022.24 1022.61 1022.92 1023.14 1023.29 1023.38
1015.76 1016.18 1016.59 1016.95 1017.26 1017.49 1017.63 1017.71 1017.73 1017.74 1017.77 1017.87 1018.04 1018.28 1018.57 1018.87 1019.14 1019.36 1019.52 1019.62 1019.68 1019.75 1019.83 1019.95 1020.11 1020.29 1020.46 1020.61 1020.71 1020.76 1020.79 1020.80 1020.85 1020.95 1021.12 1021.37 1021.68 1022.01 1022.34 1022.65 1022.90 1023.09 1023.25
1015.58 1016.03 1016.45 1016.84 1017.17 1017.43 1017.61 1017.71 1017.76 1017.78 1017.83 1017.92 1018.08 1018.31 1018.58 1018.87 1019.15 1019.38 1019.55 1019.67 1019.75 1019.83 1019.92 1020.04 1020.21 1020.39 1020.58 1020.75 1020.87 1020.95 1020.98 1020.98 1020.99 1021.03 1021.13 1021.29 1021.51 1021.77 1022.06 1022.34 1022.61 1022.85 1023.05
1015.35 1015.80 1016.23 1016.63 1016.99 1017.28 1017.49 1017.62 1017.70 1017.75 1017.80 1017.89 1018.03 1018.24 1018.50 1018.78 1019.06 1019.31 1019.50 1019.64 1019.75 1019.84 1019.95 1020.07 1020.24 1020.43 1020.62 1020.80 1020.95 1021.04 1021.09 1021.09 1021.08 1021.08 1021.11 1021.20 1021.34 1021.54 1021.77 1022.03 1022.30 1022.56 1022.80
1015.08 1015.53 1015.96 1016.37 1016.75 1017.07 1017.31 1017.48 1017.59 1017.65 1017.71 1017.79 1017.92 1018.11 1018.35 1018.62 1018.90 1019.16 1019.38 1019.55 1019.69 1019.80 1019.91 1020.04 1020.19 1020.37 1020.57 1020.75 1020.91 1021.02 1021.09 1021.10 1021.09 1021.06 1021.06 1021.09 1021.16 1021.29 1021.48 1021.70 1021.95 1022.21 1022.48
1014.79 1015.24 1015.68 1016.10 1016.49 1016.83 1017.11 1017.32 1017.46 1017.54 1017.61 1017.68 1017.79 1017.95 1018.17 1018.42 1018.70 1018.97 1019.21 1019.42 1019.58 1019.71 1019.82 1019.94 1020.09 1020.24 1020.42 1020.60 1020.76 1020.89 1020.97 1021.00 1021.00 1020.97 1020.94 1020.93 1020.95 1021.03 1021.15 1021.33 1021.54 1021.79 1022.06
1014.52 1014.97 1015.41 1015.84 1016.25 1016.62 1016.93 1017.17 1017.34 1017.45 1017.52 1017.58 1017.67 1017.80 1017.99 1018.23 1018.49 1018.77 1019.03 1019.25 1019.44 1019.58 1019.70 1019.81 1019.93 1020.06 1020.21 1020.37 1020.53 1020.66 1020.76 1020.81 1020.82 1020.80 1020.76 1020.72 1020.70 1020.71 1020.78 1020.90 1021.07 1021.29 1021.54
1014.27 1014.72 1015.17 1015.61 1016.04 1016.43 1016.78 1017.05 1017.26 1017.39 1017.46 1017.52 1017.58 1017.68 1017.84 1018.04 1018.29 1018.57 1018.83 1019.07 1019.27 1019.43 1019.55 1019.65 1019.75 1019.85 1019.97 1020.10 1020.24 1020.37 1020.48 1020.55 1020.58 1020.57 1020.52 1020.46 1020.40 1020.36 1020.36 1020.42 1020.53 1020.71 1020.93
1014.03 1014.50 1014.96 1015.41 1015.84 1016.26 1016.64 1016.95 1017.18 1017.34 1017.43 1017.47 1017.52 1017.58 1017.69 1017.86 1018.08 1018.33 1018.60 1018.85 1019.06 1019.23 1019.36 1019.45 1019.53 1019.61 1019.70 1019.82 1019.94 1020.07 1020.19 1020.27 1020.32 1020.31 1020.26 1020.18 1020.08 1019.99 1019.93 1019.92 1019.97 1020.09 1020.27
1013.82 1014.30 1014.75 1015.20 1015.65 1016.08 1016.48 1016.82 1017.08 1017.26 1017.36 1017.40 1017.42 1017.45 1017.52 1017.64 1017.82 1018.04 1018.29 1018.54 1018.76 1018.94 1019.08 1019.18 1019.25 1019.33 1019.41 1019.51 1019.63 1019.76 1019.89 1019.99 1020.05 1020.05 1020.00 1019.90 1019.77 1019.64 1019.53 1019.45 1019.44 1019.50 1019.64
1013.62 1014.09 1014.53 1014.97 1015.41 1015.84 1016.25 1016.61 1016.89 1017.09 1017.21 1017.25 1017.25 1017.24 1017.27 1017.34 1017.47 1017.66 1017.88 1018.12 1018.34 1018.53 1018.68 1018.79 1018.88 1018.96 1019.05 1019.16 1019.29 1019.43 1019.58 1019.70 1019.78 1019.80 1019.76 1019.66 1019.52 1019.35 1019.20 1019.07 1019.00 1019.01 1019.10
Thickness
5794 5790 5781 5780 5779 5778 5776 5775 5773 5772 5770 5768 5767 5765 5764 5763 5762 5762 5761 5760 5759 5758 5757 5757 5756 5755 5754 5753 5752 5751 5750 5749 5748 5747 5746 5745 5744 5742 5741 5740 5741 5740 5737
5798 5790 5780 5779 5777 5776 5775 5773 5771 5769 5768 5766 5765 5763 5762 5761 5760 5760 5759 5758 5757 5756 5756 5755 5754 5753 5752 5751 5750 5748 5747 5746 5746 5745 5744 5743 5741 5740 5739 5739 5740 5738 5735
5797 5789 5781 5778 5776 5774 5773 5771 5770 5768 5766 5765 5763 5762 5761 5760 5759 5758 5757 5756 5756 5755 5754 5753 5752 5751 5750 5748 5747 5746 5745 5744 5744 5744 5744 5743 5740 5738 5737 5737 5736 5734 5733
5797 5790 5783 5776 5774 5772 5771 5769 5768 5766 5764 5763 5761 5760 5759 5758 5757 5756 5756 5755 5754 5753 5752 5751 5750 5749 5748 5746 5745 5744 5743 5742 5742 5743 5745 5743 5739 5735 5735 5734 5733 5732 5731
5795 5789 5780 5775 5773 5771 5769 5767 5766 5764 5762 5761 5759 5759 5758 5757 5756 5754 5754 5753 5752 5751 5750 5749 5748 5746 5745 5744 5743 5742 5741 5740 5741 5744 5743 5740 5737 5733 5733 5732 5731 5730 5729
5793 5787 5779 5773 5771 5768 5767 5765 5763 5762 5760 5759 5758 5757 5756 5755 5754 5753 5752 5751 5750 5749 5748 5746 5745 5744 5743 5742 5741 5740 5739 5739 5742 5743 5740 5738 5735 5731 5730 5730 5729 5728 5727
5792 5787 5778 5771 5769 5767 5765 5763 5761 5760 5758 5757 5756 5755 5754 5753 5752 5751 5750 5749 5748 5746 5745 5744 5743 5742 5741 5739 5738 5737 5737 5738 5742 5741 5738 5736 5732 5730 5729 5728 5727 5727 5726
5791 5785 5776 5769 5767 5765 5763 5761 5759 5758 5756 5755 5754 5753 5752 5751 5750 5749 5748 5747 5746 5744 5743 5742 5740 5739 5738 5737 5736 5735 5735 5737 5739 5739 5737 5734 5729 5728 5727 5727 5726 5725 5724
5789 5784 5776 5771 5765 5762 5760 5759 5757 5756 5754 5753 5752 5751 5750 5749 5748 5747 5746 5745 5743 5742 5741 5740 5739 5738 5736 5735 5734 5733 5734 5736 5740 5737 5736 5732 5727 5726 5726 5725 5724 5723 5723
5786 5782 5776 5773 5768 5764 5760 5757 5755 5753 5752 5751 5750 5749 5748 5747 5746 5745 5744 5743 5742 5741 5740 5739 5737 5736 5735 5734 5733 5732 5733 5736 5740 5737 5735 5729 5726 5725 5724 5723 5723 5722 5721
5780 5779 5777 5773 5768 5765 5762 5757 5754 5751 5750 5749 5749 5747 5747 5749 5748 5746 5744 5741 5740 5739 5738 5737 5736 5735 5734 5733 5732 5732 5733 5738 5738 5737 5732 5727 5725 5724 5723 5722 5721 5720 5720
5774 5774 5774 5771 5767 5765 5762 5756 5754 5753 5751 5751 5750 5749 5748 5748 5748 5747 5741 5740 5739 5738 5737 5736 5736 5735 5736 5737 5733 5733 5736 5737 5737 5735 5729 5725 5723 5723 5722 5721 5720 5719 5718
5775 5772 5770 5768 5765 5763 5759 5757 5754 5753 5750 5750 5749 5747 5747 5747 5747 5745 5743 5740 5739 5739 5740 5737 5738 5740 5740 5738 5737 5737 5736 5738 5737 5735 5728 5724 5723 5722 5721 5720 5719 5718 5717
5774 5770 5769 5765 5762 5760 5758 5756 5753 5752 5750 5750 5747 5746 5746 5747 5746 5745 5743 5743 5742 5741 5740 5741 5740 5739 5738 5737 5736 5735 5735 5737 5736 5733 5727 5723 5722 5721 5720 5719 5718 5717 5716
5772 5769 5767 5763 5759 5756 5754 5753 5752 5750 5750 5749 5746 5745 5745 5745 5745 5744 5743 5742 5743 5742 5740 5739 5740 5738 5737 5736 5736 5735 5735 5734 5734 5734 5728 5723 5722 5721 5720 5718 5717 5716 5715
5772 5768 5765 5760 5757 5753 5751 5750 5749 5749 5747 5748 5746 5746 5744 5744 5743 5742 5741 5740 5742 5741 5741 5739 5739 5738 5738 5737 5736 5735 5735 5734 5732 5731 5730 5725 5722 5721 5720 5718 5717 5716 5715
5771 5768 5764 5760 5756 5752 5750 5749 5748 5747 5747 5747 5746 5744 5742 5743 5741 5741 5741 5740 5741 5740 5738 5738 5738 5739 5738 5737 5737 5736 5735 5733 5733 5731 5731 5730 5726 5722 5720 5719 5717 5716 5715
5772 5767 5763 5760 5755 5752 5750 5748 5749 5747 5746 5745 5744 5743 5742 5741 5740 5740 5741 5741 5739 5739 5739 5738 5739 5740 5739 5738 5737 5737 5736 5733 5732 5731 5731 5730 5730 5728 5723 5720 5718 5717 5715
5772 5767 5762 5759 5755 5752 5750 5748 5747 5746 5744 5744 5743 5742 5741 5740 5740 5739 5741 5740 5738 5739 5739 5740 5740 5740 5739 5738 5738 5737 5737 5735 5733 5733 5733 5732 5730 5729 5728 5722 5720 5718 5717
5771 5767 5761 5757 5754 5751 5750 5747 5746 5745 5744 5744 5743 5742 5741 5740 5739 5739 5740 5739 5739 5739 5739 5739 5737 5737 5738 5737 5740 5739 5738 5737 5736 5735 5735 5734 5732 5730 5730 5728 5724 5721 5719
5769 5764 5760 5757 5754 5751 5749 5748 5746 5745 5745 5744 5743 5742 5741 5740 5740 5739 5741 5739 5739 5739 5739 5740 5739 5737 5737 5739 5736 5735 5737 5739 5739 5737 5737 5736 5735 5733 5731 5729 5727 5726 5723
5768 5764 5759 5757 5754 5752 5751 5749 5748 5747 5746 5745 5744 5742 5742 5741 5741 5741 5740 5740 5740 5739 5738 5738 5737 5738 5739 5739 5736 5732 5730 5734 5737 5742 5739 5736 5736 5735 5734 5732 5729 5727 5725
5769 5764 5760 5756 5754 5753 5751 5750 5748 5745 5744 5744 5743 5743 5743 5742 5742 5741 5741 5741 5740 5740 5739 5738 5737 5736 5735 5738 5739 5734 5729 5728 5735 5740 5740 5739 5737 5736 5736 5734 5732 5729 5726
5771 5767 5762 5757 5754 5753 5752 5750 5748 5745 5744 5745 5745 5745 5744 5742 5742 5742 5741 5740 5740 5741 5740 5740 5740 5738 5736 5735 5737 5737 5737 5736 5730 5730 5736 5740 5739 5736 5736 5736 5735 5731 5728
5773 5768 5763 5758 5756 5754 5753 5751 5748 5747 5747 5747 5746 5745 5743 5743 5742 5742 5742 5741 5740 5741 5740 5740 5740 5738 5738 5737 5737 5737 5736 5735 5734 5729 5727 5732 5736 5737 5736 5734 5733 5731 5729
5774 5768 5763 5759 5757 5755 5753 5752 5749 5747 5746 5746 5744 5744 5744 5744 5743 5743 5742 5741 5741 5741 5740 5739 5739 5738 5738 5737 5737 5738 5735 5733 5732 5731 5727 5727 5729 5733 5733 5732 5731 5729 5727